Flag for United Kingdom Weather past 2 weeks in Belfast, Northern Ireland, United Kingdom

Now
59 °F

Broken clouds.


Feels Like: 59 °F
Forecast: 56 / 65 °F
Wind: 5 mph from Northeast

Location: Belfast / Harbour

Current Time: Sep 16, 2014 at 8:44:11 AM

Latest Report: Sep 16, 2014 at 8:20 AM


Visibility: 3 mi

Pressure: 30.01 "Hg

Humidity: 94%

Dew point: 57 °F

Location of BelfastLocation

Historic Weather in Belfast — Graph

°F

Belfast temperature yesterday

Maximum temperature yesterday: 63 °F (at 11:50 AM)
Minimum temperature yesterday: 52 °F (at 6:20 AM)
Average temperature yesterday: 59 °F

Past Weeks' High & Low Weather Summary

 TemperatureHumidityPressure
High72 °F (Sep 4, 3:50 PM)100% (Sep 4, 6:50 AM)30.36 "Hg (Sep 4, 6:50 AM)
Low46 °F (Sep 3, 6:20 AM)55% (Sep 7, 4:20 PM)30.01 "Hg (Sep 6, 3:50 PM)
Average60 °F77%30.16 "Hg
* Reported Sep 1 7:20 AM — Sep 16 7:50 AM, Belfast, Weather by CustomWeather, © 2014

Note: Actual official high and low records may vary slightly from our data, if they occured in-between our weather recording intervals... More about our weather records

Advertising

Belfast weather history for previous 24 hours

 ConditionsComfort  
Time TempWeatherWind HumidityBarometerVisibility
7:50 AM
Sep 16
57 °FPartly cloudy.3 mph94%30.01 "Hg3 mi
7:20 AM57 °FPartly cloudy.3 mph94%30.01 "Hg3 mi
6:50 AM55 °FPartly cloudy.3 mph100%30.01 "Hg4 mi
6:20 AM55 °FPartly cloudy.3 mph100%30.01 "Hg4 mi
10:20 PM
Sep 15
59 °FPartly cloudy.9 mph88%30.04 "HgN/A
9:50 PM59 °FPartly cloudy.10 mph88%30.07 "HgN/A
9:20 PM59 °FPartly cloudy.9 mph88%30.07 "HgN/A
8:50 PM59 °FPartly cloudy.10 mph88%30.07 "HgN/A
8:20 PM59 °FBroken clouds.10 mph88%30.07 "HgN/A
7:50 PM59 °FBroken clouds.12 mph88%30.07 "HgN/A
7:20 PM59 °FBroken clouds.10 mph88%30.07 "HgN/A
6:50 PM59 °FScattered clouds.9 mph88%30.07 "HgN/A
6:20 PM59 °FScattered clouds.10 mph88%30.07 "HgN/A
5:50 PM59 °FScattered clouds.12 mph88%30.07 "HgN/A
5:20 PM59 °FScattered clouds.9 mph88%30.07 "HgN/A
4:50 PM59 °FScattered clouds.10 mph88%30.09 "HgN/A
4:20 PM59 °FPartly sunny.13 mph88%30.09 "HgN/A
3:50 PM59 °FPartly sunny.13 mph88%30.09 "HgN/A
3:20 PM59 °FPartly sunny.13 mph82%30.09 "HgN/A
2:50 PM61 °FPartly sunny.13 mph83%30.09 "HgN/A
2:20 PM59 °FPartly sunny.13 mph82%30.12 "HgN/A
1:50 PM61 °FPartly sunny.10 mph77%30.12 "HgN/A
1:20 PM63 °FPartly sunny.10 mph73%30.12 "HgN/A
12:50 PM61 °FPartly sunny.9 mph77%30.15 "HgN/A
12:20 PM61 °FScattered clouds.10 mph77%30.15 "HgN/A
11:50 AM63 °FScattered clouds.8 mph73%30.15 "HgN/A
11:20 AM61 °FScattered clouds.9 mph77%30.15 "HgN/A
10:50 AM61 °FScattered clouds.9 mph77%30.18 "HgN/A
10:20 AM59 °FScattered clouds.10 mph82%30.18 "HgN/A
9:50 AM59 °FScattered clouds.13 mph82%30.18 "HgN/A
9:20 AM59 °FScattered clouds.10 mph82%30.18 "HgN/A
8:50 AM57 °FScattered clouds.8 mph88%30.18 "HgN/A
8:20 AM55 °FScattered clouds.5 mph94%30.18 "HgN/A
Weather by CustomWeather, © 2014

See weather overviewHow to use our weather pages